When you browse on this site, cookies collect data to enhance your experience and personalize the content and advertising you see.
Visit our Privacy Policy to learn more. By continuing to use the site, you agree to this use of cookies and data.
  • In Czech Republic
  • List of Countries
  • For 7 days
  • Water Temperature
  • Satellite Maps
  • Weather Map
  • Weather Widgets
  • user-avatar
    Login

    Hourly Weather Xi'an

    Today, 21 March, Thursday

    Time Temperature Precipitation Wind Pressure Humidity
    00:00 +15°C° 0 mm 2 mps 726 mmHg 32%
    01:00 +14°C° 0 mm 2 mps 726 mmHg 34%
    02:00 +14°C° 0 mm 2 mps 726 mmHg 32%
    03:00 +13°C° 0 mm 2 mps 727 mmHg 29%
    04:00 +12°C° 0 mm 2 mps 727 mmHg 26%
    05:00 +12°C° 0 mm 2 mps 728 mmHg 24%
    06:00 +10°C° 0 mm 2 mps 728 mmHg 23%
    07:00 +10°C° 0 mm 2 mps 729 mmHg 21%
    08:00 +10°C° 0 mm 3 mps 730 mmHg 24%
    09:00 +10°C° 0 mm 3 mps 730 mmHg 26%
    10:00 +9°C° 0 mm 3 mps 731 mmHg 28%
    11:00 +10°C° 0.1 mm 2 mps 730 mmHg 31%
    12:00 +10°C° 0.1 mm 2 mps 730 mmHg 34%
    13:00 +10°C° 0.1 mm 2 mps 729 mmHg 37%
    14:00 +10°C° 0.1 mm 2 mps 729 mmHg 38%
    15:00 +11°C° 0.1 mm 1 mps 729 mmHg 39%
    16:00 +11°C° 0.1 mm 1 mps 729 mmHg 40%
    17:00 +11°C° 0 mm 1 mps 729 mmHg 41%
    18:00 +10°C° 0 mm 1 mps 729 mmHg 43%
    19:00 +9°C° 0 mm 0 mps 730 mmHg 44%
    20:00 +9°C° 0 mm 1 mps 730 mmHg 45%
    21:00 +9°C° 0 mm 1 mps 731 mmHg 47%
    22:00 +8°C° 0 mm 1 mps 731 mmHg 48%
    23:00 +8°C° 0 mm 1 mps 731 mmHg 49%

    Tomorrow, 22 March, Friday

    Time Temperature Precipitation Wind Pressure Humidity
    00:00 +7°C° 0 mm 0 mps 731 mmHg 50%
    01:00 +6°C° 0 mm 0 mps 731 mmHg 51%
    02:00 +6°C° 0 mm 0 mps 730 mmHg 51%
    03:00 +6°C° 0 mm 0 mps 730 mmHg 52%
    04:00 +6°C° 0 mm 0 mps 730 mmHg 53%
    05:00 +6°C° 0 mm 0 mps 730 mmHg 52%
    06:00 +6°C° 0 mm 0 mps 731 mmHg 50%
    07:00 +8°C° 0 mm 1 mps 731 mmHg 49%
    08:00 +9°C° 0 mm 1 mps 731 mmHg 43%
    09:00 +11°C° 0 mm 1 mps 731 mmHg 37%
    10:00 +12°C° 0 mm 1 mps 731 mmHg 30%
    11:00 +13°C° 0 mm 1 mps 731 mmHg 27%
    12:00 +15°C° 0 mm 1 mps 731 mmHg 23%
    13:00 +16°C° 0 mm 1 mps 731 mmHg 19%
    14:00 +16°C° 0 mm 1 mps 731 mmHg 19%
    15:00 +16°C° 0 mm 1 mps 731 mmHg 18%
    16:00 +16°C° 0 mm 1 mps 730 mmHg 18%
    17:00 +14°C° 0 mm 2 mps 731 mmHg 20%
    18:00 +13°C° 0 mm 2 mps 731 mmHg 22%
    19:00 +10°C° 0 mm 2 mps 732 mmHg 24%
    20:00 +11°C° 0 mm 1 mps 732 mmHg 25%
    21:00 +10°C° 0 mm 1 mps 733 mmHg 27%
    22:00 +9°C° 0 mm 1 mps 733 mmHg 28%
    23:00 +9°C° 0 mm 1 mps 734 mmHg 29%

    Day after tomorrow, 23 March, Saturday

    Time Temperature Precipitation Wind Pressure Humidity
    00:00 +9°C° 0 mm 1 mps 734 mmHg 29%
    01:00 +8°C° 0 mm 1 mps 734 mmHg 30%
    02:00 +8°C° 0 mm 1 mps 733 mmHg 31%
    03:00 +8°C° 0 mm 1 mps 733 mmHg 32%
    04:00 +7°C° 0 mm 0 mps 733 mmHg 32%
    05:00 +7°C° 0 mm 0 mps 734 mmHg 32%
    06:00 +7°C° 0 mm 0 mps 734 mmHg 32%
    07:00 +8°C° 0 mm 0 mps 735 mmHg 32%
    08:00 +11°C° 0 mm 1 mps 734 mmHg 28%
    09:00 +12°C° 0 mm 1 mps 734 mmHg 24%
    10:00 +14°C° 0 mm 2 mps 734 mmHg 19%
    11:00 +16°C° 0 mm 2 mps 733 mmHg 18%
    12:00 +17°C° 0 mm 2 mps 732 mmHg 16%
    13:00 +18°C° 0 mm 3 mps 731 mmHg 15%
    14:00 +18°C° 0 mm 3 mps 730 mmHg 15%
    15:00 +18°C° 0 mm 3 mps 729 mmHg 16%
    16:00 +18°C° 0 mm 3 mps 728 mmHg 16%
    17:00 +17°C° 0 mm 3 mps 729 mmHg 18%
    18:00 +16°C° 0 mm 3 mps 729 mmHg 20%
    19:00 +13°C° 0 mm 3 mps 729 mmHg 21%
    20:00 +14°C° 0 mm 2 mps 729 mmHg 24%
    21:00 +13°C° 0 mm 2 mps 730 mmHg 26%
    22:00 +12°C° 0 mm 2 mps 730 mmHg 28%
    23:00 +12°C° 0 mm 2 mps 729 mmHg 30%

    24 March, Sunday

    Time Temperature Precipitation Wind Pressure Humidity
    00:00 +11°C° 0 mm 1 mps 729 mmHg 32%
    01:00 +11°C° 0 mm 1 mps 729 mmHg 33%
    02:00 +11°C° 0 mm 1 mps 728 mmHg 35%
    03:00 +10°C° 0 mm 1 mps 728 mmHg 36%
    04:00 +10°C° 0 mm 1 mps 728 mmHg 37%
    05:00 +10°C° 0 mm 1 mps 728 mmHg 38%
    06:00 +11°C° 0 mm 1 mps 728 mmHg 39%
    07:00 +11°C° 0 mm 1 mps 728 mmHg 39%
    08:00 +13°C° 0 mm 1 mps 728 mmHg 37%
    09:00 +14°C° 0 mm 1 mps 728 mmHg 35%
    10:00 +16°C° 0 mm 1 mps 728 mmHg 33%
    11:00 +18°C° 0 mm 1 mps 727 mmHg 31%
    12:00 +19°C° 0 mm 1 mps 726 mmHg 29%
    13:00 +21°C° 0 mm 1 mps 725 mmHg 28%
    14:00 +21°C° 0 mm 1 mps 725 mmHg 27%
    15:00 +20°C° 0 mm 1 mps 724 mmHg 26%
    16:00 +20°C° 0 mm 1 mps 724 mmHg 26%
    17:00 +19°C° 0 mm 1 mps 724 mmHg 28%
    18:00 +18°C° 0 mm 1 mps 725 mmHg 31%
    19:00 +15°C° 0 mm 2 mps 725 mmHg 33%
    20:00 +15°C° 0 mm 2 mps 725 mmHg 37%
    21:00 +14°C° 0 mm 2 mps 726 mmHg 40%
    22:00 +13°C° 0 mm 2 mps 726 mmHg 44%
    23:00 +13°C° 0 mm 2 mps 726 mmHg 47%

    25 March, Monday

    Time Temperature Precipitation Wind Pressure Humidity
    00:00 +12°C° 0 mm 2 mps 726 mmHg 50%
    01:00 +12°C° 0 mm 2 mps 726 mmHg 52%
    02:00 +12°C° 0 mm 2 mps 726 mmHg 52%
    03:00 +10°C° 0 mm 2 mps 725 mmHg 52%
    04:00 +10°C° 0 mm 2 mps 725 mmHg 52%
    05:00 +12°C° 0 mm 2 mps 726 mmHg 50%
    06:00 +12°C° 0 mm 1 mps 726 mmHg 48%
    07:00 +13°C° 0 mm 1 mps 726 mmHg 45%
    08:00 +15°C° 0 mm 1 mps 727 mmHg 38%
    09:00 +19°C° 0 mm 1 mps 727 mmHg 31%
    10:00 +21°C° 0 mm 1 mps 727 mmHg 24%
    11:00 +22°C° 0 mm 1 mps 726 mmHg 22%
    12:00 +24°C° 0 mm 1 mps 726 mmHg 20%
    13:00 +25°C° 0 mm 1 mps 725 mmHg 18%
    14:00 +25°C° 0 mm 1 mps 725 mmHg 17%
    15:00 +25°C° 0 mm 2 mps 725 mmHg 17%
    16:00 +24°C° 0 mm 2 mps 724 mmHg 17%
    17:00 +23°C° 0 mm 2 mps 725 mmHg 19%
    18:00 +20°C° 0 mm 2 mps 725 mmHg 21%
    19:00 +18°C° 0 mm 2 mps 726 mmHg 23%
    20:00 +18°C° 0 mm 2 mps 726 mmHg 26%
    21:00 +18°C° 0 mm 1 mps 726 mmHg 30%
    22:00 +16°C° 0 mm 1 mps 727 mmHg 33%
    23:00 +16°C° 0 mm 1 mps 727 mmHg 35%

    26 March, Tuesday

    Time Temperature Precipitation Wind Pressure Humidity
    00:00 +16°C° 0 mm 1 mps 727 mmHg 38%
    01:00 +15°C° 0 mm 2 mps 727 mmHg 40%
    02:00 +15°C° 0 mm 1 mps 727 mmHg 42%
    03:00 +15°C° 0 mm 1 mps 727 mmHg 43%
    04:00 +15°C° 0 mm 1 mps 727 mmHg 44%
    05:00 +15°C° 0 mm 1 mps 727 mmHg 45%
    06:00 +16°C° 0 mm 1 mps 728 mmHg 45%
    07:00 +15°C° 0 mm 0 mps 728 mmHg 45%
    08:00 +19°C° 0 mm 1 mps 728 mmHg 40%
    09:00 +21°C° 0 mm 1 mps 728 mmHg 34%
    10:00 +23°C° 0 mm 1 mps 728 mmHg 28%
    11:00 +24°C° 0 mm 2 mps 727 mmHg 26%
    12:00 +25°C° 0 mm 2 mps 726 mmHg 23%
    13:00 +26°C° 0 mm 3 mps 726 mmHg 20%
    14:00 +25°C° 0 mm 3 mps 725 mmHg 20%
    15:00 +25°C° 0 mm 3 mps 725 mmHg 20%
    16:00 +25°C° 0 mm 3 mps 724 mmHg 20%
    17:00 +24°C° 0 mm 2 mps 724 mmHg 21%
    18:00 +21°C° 0 mm 2 mps 725 mmHg 21%
    19:00 +20°C° 0 mm 2 mps 725 mmHg 22%
    20:00 +20°C° 0 mm 1 mps 725 mmHg 24%
    21:00 +19°C° 0 mm 1 mps 725 mmHg 27%
    22:00 +19°C° 0 mm 1 mps 726 mmHg 29%
    23:00 +18°C° 0 mm 1 mps 725 mmHg 32%
    Show more